sat.trackr.live / text

‹ back to catalog

STARLINK-32424

NORAD 61548 · 2024-184S

PAYLOAD ACTIVE UNKNOWN

§ Identity

Operator
Country
US
Launch date
2024-10-15
Launch site
AFWTR
Launch vehicle
Mass (kg)
RCS (m²)

Purposes: comms

External: N2YO · Heavens-Above · Gunter

§ Orbital elements

Epoch: 2026-05-25T04:00:03.998880Z

Period
93.90 min
Inclination
53.1604°
Eccentricity
0.0001608
Mean motion
15.33518437 rev/d
Perigee alt
464.2 km
Apogee alt
466.4 km
Semi-major
6,843.5 km
B*
1.0041e-3
RAAN
18.8637°
Arg perigee
86.9859°
Mean anomaly
280.9431°
Rev number
580

§ Raw data

STARLINK-324241 61548U 24184S   26145.16671295  .00032762  00000+0  10041-2 0  99952 61548  53.1604  18.8637 0001608  86.9859 280.9431 15.33518437  5808

JSON: /api/v1/satellites/61548 · /tle

For live sub-satellite position, see the globe view (requires WebGL).

§ Visibility from observer

Set your observer location to see the next 7 days of passes ≥ 10°. The values pass through the URL so the page stays shareable.

No JS? Fill the form by hand. The geolocation button needs JavaScript.